Humidity-temperature Sensor

Selected Measurement Type: Relative Humidity

 
Relative Humidity [%]     6 entries per hour
Showing data from 9/14/2017 (08:30:00 Z) to 9/7/2017 (00:01:00 Z)
Previous Next [ Day | 3-Days | 7-Days ]
First Last
Prev [ Day | 3-Days | 7-Days ] Next
First Last

Start Time:     :
End Time:     :     
Time (in GMT) :00 :50 :40 :30 :20 :10
Previous Next [ Day | 3-Days | 7-Days ]
First Last
Prev [ Day | 3-Days | 7-Days ] Next
First Last


123 => good data
MM => data is determined as missing
-- => data not received/configured
Back to Top Back to Top
9/14/2017 09:00 to 8:10 -- -- -- 72.26 70.66 69.31
9/14/2017 08:00 to 7:10 69.69 68.87 69.90 70.40 70.57 70.47
9/14/2017 07:00 to 6:10 73.04 73.10 73.25 73.48 72.45 72.59
9/14/2017 06:00 to 5:10 -- -- -- -- -- --
9/14/2017 05:00 to 4:10 75.44 73.88 75.71 75.29 74.64 75.10
9/14/2017 04:00 to 3:10 74.89 72.28 71.25 76.55 78.34 81.53
9/14/2017 03:00 to 2:10 84.16 87.34 89.11 84.68 80.28 80.91
9/14/2017 02:00 to 1:10 81.10 82.14 81.93 81.36 81.99 81.97
9/14/2017 01:00 to 0:10 82.22 84.60 85.95 89.07 91.30 87.55
9/14/2017 00:00 to 23:10 83.23 81.23 81.48 81.44 88.88 89.00
9/13/2017 23:00 to 22:10 88.18 90.37 93.09 94.50 94.88 95.05
9/13/2017 22:00 to 21:10 95.59 95.89 95.64 95.32 94.27 92.50
9/13/2017 21:00 to 20:10 88.33 77.31 73.90 70.97 79.86 80.13
9/13/2017 20:00 to 19:10 83.32 83.29 81.78 85.63 91.17 92.27
9/13/2017 19:00 to 18:10 95.13 95.64 95.66 95.59 94.56 93.02
9/13/2017 18:00 to 17:10 90.06 83.74 84.12 84.47 85.61 87.38
9/13/2017 17:00 to 16:10 88.39 88.90 90.60 91.72 92.10 93.15
9/13/2017 16:00 to 15:10 93.00 91.85 89.17 86.96 86.39 86.43
9/13/2017 15:00 to 14:10 86.83 87.09 88.35 87.91 88.92 89.82
9/13/2017 14:00 to 13:10 90.39 90.64 91.34 92.25 92.71 92.08
9/13/2017 13:00 to 12:10 91.21 91.38 89.47 84.28 82.70 83.53
9/13/2017 12:00 to 11:10 86.33 87.82 88.01 89.47 90.73 90.88
9/13/2017 11:00 to 10:10 92.50 92.77 92.92 93.05 93.00 93.15
9/13/2017 10:00 to 9:10 92.86 92.29 91.28 90.60 87.78 83.21
9/13/2017 09:00 to 8:10 86.12 87.55 87.93 88.31 89.49 89.19
9/13/2017 08:00 to 7:10 89.23 88.98 87.40 85.21 79.65 78.91
9/13/2017 07:00 to 6:10 78.47 77.35 76.09 76.62 76.58 81.04
9/13/2017 06:00 to 5:10 83.10 82.09 86.29 86.52 81.29 83.27
9/13/2017 05:00 to 4:10 78.32 79.73 81.06 81.40 81.10 81.40
9/13/2017 04:00 to 3:10 79.80 79.86 75.56 74.36 74.66 75.54
9/13/2017 03:00 to 2:10 75.59 75.56 75.86 76.05 76.24 77.73
9/13/2017 02:00 to 1:10 78.20 81.48 82.35 81.25 81.38 80.96
9/13/2017 01:00 to 0:10 82.98 83.59 82.87 82.11 84.01 82.66
9/13/2017 00:00 to 23:10 83.34 82.83 84.83 82.92 78.58 76.47
9/12/2017 23:00 to 22:10 79.42 79.52 79.55 78.68 77.33 79.92
9/12/2017 22:00 to 21:10 79.86 77.19 78.30 78.24 78.32 76.74
9/12/2017 21:00 to 20:10 78.79 78.20 78.93 78.18 76.74 77.14
9/12/2017 20:00 to 19:10 79.04 81.04 80.58 79.92 78.85 83.25
9/12/2017 19:00 to 18:10 81.50 78.20 77.88 78.11 77.75 77.99
9/12/2017 18:00 to 17:10 78.05 78.72 79.44 79.12 79.59 79.21
9/12/2017 17:00 to 16:10 78.81 79.27 79.08 79.40 80.11 79.82
9/12/2017 16:00 to 15:10 80.13 79.73 78.70 78.91 78.68 78.53
9/12/2017 15:00 to 14:10 78.24 79.44 79.86 79.57 79.90 81.57
9/12/2017 14:00 to 13:10 85.65 88.14 88.52 87.02 80.91 80.26
9/12/2017 13:00 to 12:10 81.02 80.79 81.00 81.50 85.32 85.80
9/12/2017 12:00 to 11:10 84.73 84.41 79.86 79.25 80.39 80.94
9/12/2017 11:00 to 10:10 80.45 80.75 79.78 82.33 80.62 82.79
9/12/2017 10:00 to 9:10 80.07 78.03 77.08 80.39 80.37 86.07
9/12/2017 09:00 to 8:10 80.85 77.97 77.86 78.60 78.43 77.92
9/12/2017 08:00 to 7:10 77.86 78.53 78.77 78.87 77.19 76.70
9/12/2017 07:00 to 6:10 78.30 77.84 78.30 77.50 78.49 77.29
9/12/2017 06:00 to 5:10 76.87 76.20 76.98 78.51 79.73 81.90
9/12/2017 05:00 to 4:10 86.24 86.18 86.94 87.11 85.48 84.92
9/12/2017 04:00 to 3:10 83.48 79.04 79.52 75.08 72.47 70.24
9/12/2017 03:00 to 2:10 68.42 69.41 73.52 76.22 75.42 76.39
9/12/2017 02:00 to 1:10 79.19 81.10 81.63 75.08 73.08 85.74
9/12/2017 01:00 to 0:10 86.54 88.03 85.02 78.79 79.10 77.50
9/12/2017 00:00 to 23:10 77.17 79.04 79.86 80.47 77.12 75.94
9/11/2017 23:00 to 22:10 74.30 74.79 76.39 75.65 77.33 76.91
9/11/2017 22:00 to 21:10 75.92 76.24 75.46 75.61 75.12 75.71
9/11/2017 21:00 to 20:10 74.43 73.61 73.06 74.74 72.74 73.50
9/11/2017 20:00 to 19:10 74.30 74.13 74.32 73.71 74.60 74.91
9/11/2017 19:00 to 18:10 73.98 72.62 73.86 72.83 75.42 76.24
9/11/2017 18:00 to 17:10 78.22 78.32 78.51 78.91 79.95 80.64
9/11/2017 17:00 to 16:10 79.42 79.40 80.45 81.21 78.47 78.60
9/11/2017 16:00 to 15:10 80.45 81.67 77.27 79.90 79.95 79.86
9/11/2017 15:00 to 14:10 77.35 76.11 75.80 74.89 76.70 76.87
9/11/2017 14:00 to 13:10 74.62 75.19 78.01 81.27 84.94 84.90
9/11/2017 13:00 to 12:10 85.95 75.40 73.54 76.41 76.72 75.90
9/11/2017 12:00 to 11:10 78.03 77.97 77.75 78.96 77.92 77.97
9/11/2017 11:00 to 10:10 77.67 81.78 81.23 79.99 79.90 80.51
9/11/2017 10:00 to 9:10 80.28 82.87 81.46 87.02 83.02 80.20
9/11/2017 09:00 to 8:10 80.41 80.58 79.31 80.01 79.88 80.26
9/11/2017 08:00 to 7:10 80.20 79.86 80.13 80.05 80.98 79.90
9/11/2017 07:00 to 6:10 81.42 81.36 81.44 82.56 82.24 83.02
9/11/2017 06:00 to 5:10 -- -- -- -- -- --
9/11/2017 05:00 to 4:10 85.80 89.72 89.76 83.38 81.21 81.10
9/11/2017 04:00 to 3:10 79.90 79.50 79.67 80.24 79.86 80.72
9/11/2017 03:00 to 2:10 80.64 81.23 81.84 80.39 82.49 82.83
9/11/2017 02:00 to 1:10 81.10 79.04 82.83 81.48 78.87 78.24
9/11/2017 01:00 to 0:10 77.29 83.78 72.55 71.31 72.93 73.46
9/11/2017 00:00 to 23:10 74.74 75.52 77.04 77.12 75.69 77.80
9/10/2017 23:00 to 22:10 79.69 80.16 80.24 78.13 72.70 72.89
9/10/2017 22:00 to 21:10 72.22 72.89 73.46 72.49 72.43 70.43
9/10/2017 21:00 to 20:10 71.06 70.93 69.25 70.97 70.93 72.01
9/10/2017 20:00 to 19:10 73.63 74.60 76.51 76.74 76.07 75.48
9/10/2017 19:00 to 18:10 79.73 78.91 81.31 81.06 81.84 81.67
9/10/2017 18:00 to 17:10 80.58 80.94 81.88 82.24 85.11 86.69
9/10/2017 17:00 to 16:10 86.22 86.10 85.86 83.53 87.51 86.77
9/10/2017 16:00 to 15:10 85.48 84.01 82.60 79.15 79.61 78.79
9/10/2017 15:00 to 14:10 78.37 77.04 74.68 81.08 82.98 82.05
9/10/2017 14:00 to 13:10 80.89 80.20 79.02 80.13 82.75 85.21
9/10/2017 13:00 to 12:10 85.53 85.15 85.82 84.41 85.65 85.42
9/10/2017 12:00 to 11:10 85.93 87.19 88.29 89.80 91.07 90.83
9/10/2017 11:00 to 10:10 90.33 88.71 88.75 89.51 88.43 86.18
9/10/2017 10:00 to 9:10 87.53 81.04 82.77 84.35 84.49 85.06
9/10/2017 09:00 to 8:10 85.57 87.00 85.70 85.11 83.15 78.64
9/10/2017 08:00 to 7:10 78.30 77.90 77.82 77.42 75.44 75.00
9/10/2017 07:00 to 6:10 76.11 74.76 79.65 78.77 82.85 80.62
9/10/2017 06:00 to 5:10 84.05 82.77 83.50 83.21 81.46 82.92
9/10/2017 05:00 to 4:10 84.43 84.98 84.07 83.82 82.87 83.72
9/10/2017 04:00 to 3:10 85.51 86.31 89.23 90.75 91.97 90.60
9/10/2017 03:00 to 2:10 -- -- -- -- -- --
9/10/2017 02:00 to 1:10 87.15 86.37 85.95 85.36 86.03 86.73
9/10/2017 01:00 to 0:10 87.13 87.19 88.05 88.96 88.41 89.00
9/10/2017 00:00 to 23:10 89.95 90.31 91.13 91.26 91.05 91.15
9/9/2017 23:00 to 22:10 91.32 92.08 91.76 88.81 73.88 77.04
9/9/2017 22:00 to 21:10 77.75 77.84 77.78 78.34 77.73 76.72
9/9/2017 21:00 to 20:10 75.61 73.25 71.77 71.46 75.19 75.33
9/9/2017 20:00 to 19:10 77.19 77.97 78.16 77.69 77.21 77.65
9/9/2017 19:00 to 18:10 77.59 79.44 82.07 82.01 80.75 80.28
9/9/2017 18:00 to 17:10 79.61 77.21 76.89 77.17 78.62 81.48
9/9/2017 17:00 to 16:10 84.81 85.93 83.74 82.98 79.17 79.19
9/9/2017 16:00 to 15:10 79.38 79.63 79.00 81.02 81.34 79.02
9/9/2017 15:00 to 14:10 77.69 76.03 71.48 72.89 74.74 75.61
9/9/2017 14:00 to 13:10 79.04 79.31 77.38 75.71 76.01 78.05
9/9/2017 13:00 to 12:10 82.89 86.18 82.09 79.31 79.69 80.20
9/9/2017 12:00 to 11:10 80.24 78.07 78.51 79.63 78.79 73.75
9/9/2017 11:00 to 10:10 75.78 77.65 76.91 75.48 73.06 74.39
9/9/2017 10:00 to 9:10 74.15 73.90 73.82 76.28 76.85 77.33
9/9/2017 09:00 to 8:10 76.49 76.47 76.41 74.22 73.84 74.93
9/9/2017 08:00 to 7:10 76.77 76.53 76.26 76.01 76.01 74.62
9/9/2017 07:00 to 6:10 73.12 70.87 70.91 72.03 71.86 71.58
9/9/2017 06:00 to 5:10 71.12 70.21 72.17 71.27 70.91 71.39
9/9/2017 05:00 to 4:10 69.10 69.71 68.85 68.97 69.37 70.72
9/9/2017 04:00 to 3:10 68.47 70.13 69.73 71.10 68.57 68.17
9/9/2017 03:00 to 2:10 68.21 66.63 67.60 70.32 68.19 68.64
9/9/2017 02:00 to 1:10 68.66 70.00 68.61 68.19 68.26 69.41
9/9/2017 01:00 to 0:10 68.68 68.93 70.15 69.46 69.01 69.22
9/9/2017 00:00 to 23:10 69.37 68.95 70.66 72.22 69.10 71.39
9/8/2017 23:00 to 22:10 69.84 70.66 71.48 70.70 71.48 71.29
9/8/2017 22:00 to 21:10 69.75 71.02 70.13 69.77 70.34 70.51
9/8/2017 21:00 to 20:10 69.92 69.39 69.20 71.42 72.01 72.30
9/8/2017 20:00 to 19:10 73.12 72.34 72.74 73.56 72.19 72.55
9/8/2017 19:00 to 18:10 73.56 72.34 72.19 72.74 71.27 72.09
9/8/2017 18:00 to 17:10 72.74 71.77 71.44 72.53 73.37 75.14
9/8/2017 17:00 to 16:10 74.64 74.57 76.77 78.60 78.13 75.25
9/8/2017 16:00 to 15:10 75.65 75.12 73.21 78.03 74.76 77.00
9/8/2017 15:00 to 14:10 75.82 78.45 78.32 75.27 76.72 77.73
9/8/2017 14:00 to 13:10 77.92 78.53 79.69 79.12 79.61 77.42
9/8/2017 13:00 to 12:10 74.87 73.58 75.94 76.22 74.72 75.21
9/8/2017 12:00 to 11:10 74.95 75.65 75.29 75.78 74.26 74.60
9/8/2017 11:00 to 10:10 75.63 75.56 75.99 75.52 74.64 74.13
9/8/2017 10:00 to 9:10 74.97 73.86 74.36 73.73 74.83 74.47
9/8/2017 09:00 to 8:10 75.08 74.28 74.09 73.75 75.52 74.57
9/8/2017 08:00 to 7:10 74.09 74.85 74.49 74.60 75.71 73.63
9/8/2017 07:00 to 6:10 74.85 74.45 75.63 76.18 76.58 75.96
9/8/2017 06:00 to 5:10 -- -- -- -- -- --
9/8/2017 05:00 to 4:10 76.22 74.20 74.47 73.77 73.82 75.33
9/8/2017 04:00 to 3:10 74.51 75.25 72.26 73.82 74.79 74.32
9/8/2017 03:00 to 2:10 75.21 74.53 74.91 75.00 75.19 74.72
9/8/2017 02:00 to 1:10 75.27 74.66 74.66 75.16 74.60 75.50
9/8/2017 01:00 to 0:10 75.71 75.42 75.48 74.11 73.92 73.56
9/8/2017 00:00 to 23:10 73.10 73.80 73.82 73.88 73.25 73.40
9/7/2017 23:00 to 22:10 72.03 72.41 72.09 70.91 71.63 71.12
9/7/2017 22:00 to 21:10 71.08 72.19 71.50 71.94 71.27 72.49
9/7/2017 21:00 to 20:10 73.14 72.70 72.81 72.55 72.70 71.39
9/7/2017 20:00 to 19:10 70.83 71.16 71.35 71.31 72.11 73.84
9/7/2017 19:00 to 18:10 73.63 74.66 75.02 74.60 75.96 77.27
9/7/2017 18:00 to 17:10 77.10 78.34 78.05 78.32 77.80 78.13
9/7/2017 17:00 to 16:10 79.04 80.37 80.41 80.91 81.15 79.88
9/7/2017 16:00 to 15:10 79.95 80.22 78.98 78.74 78.83 78.39
9/7/2017 15:00 to 14:10 78.01 78.07 79.02 78.81 79.86 79.17
9/7/2017 14:00 to 13:10 78.79 79.29 79.31 80.39 82.39 82.20
9/7/2017 13:00 to 12:10 84.96 85.13 84.56 85.80 87.15 87.04
9/7/2017 12:00 to 11:10 87.61 88.52 88.18 89.30 89.63 89.93
9/7/2017 11:00 to 10:10 91.38 91.55 90.73 90.81 91.32 90.14
9/7/2017 10:00 to 9:10 90.64 88.43 89.72 88.58 88.81 90.67
9/7/2017 09:00 to 8:10 89.25 87.30 86.12 87.97 86.43 88.05
9/7/2017 08:00 to 7:10 87.42 85.63 87.23 86.62 87.21 86.64
9/7/2017 07:00 to 6:10 86.79 86.03 86.83 84.90 85.48 85.44
9/7/2017 06:00 to 5:10 84.01 82.98 82.20 82.14 80.03 79.48
9/7/2017 05:00 to 4:10 81.12 81.34 82.28 83.63 84.39 84.75
9/7/2017 04:00 to 3:10 85.19 85.15 86.69 86.03 84.52 83.42
9/7/2017 03:00 to 2:10 -- -- -- -- -- --
9/7/2017 02:00 to 1:10 88.58 87.02 85.08 82.75 81.80 79.23
9/7/2017 01:00 to 0:10 79.31 78.96 78.28 77.61 78.45 78.09